Location: Colorado Springs
(38.8340°N, 104.8210°W)
Time: 22:08:21
(UTC-07:00)

Vanguard 3 - Pass Details

Date: 24 October 2017
Orbit: 509 x 3263 km, 33.4° (Epoch: 17 November)

Event Time Altitude Azimuth Distance (km) Brightness Sun altitude
Rises 00:52:17 0° 201° (SSW) 7,176 - -62.9°
Reaches altitude 10° 00:58:39 10° 189° (S) 6,191 - -62.8°
Maximum altitude 01:12:27 25° 144° (SE) 4,674 - -62.3°
Exits shadow 01:22:51 12° 101° (E) 4,950 11.1 -61.6°
Drops below altitude 10° 01:23:43 10° 98° (E) 5,043 11.2 -61.6°
Sets 01:28:03 0° 86° (E) 5,650 11.6 -61.3°
